{"data":{"norad_id":53224,"intl_designator":"2022-084AM","name":"STARLINK-4356","alt_names":[],"object_type":"PAYLOAD","status":"ACTIVE","operator":null,"country":"US","launch_date":"2022-07-22","launch_site_code":"AFWTR","launch_vehicle":null,"mission":null,"orbit_class":"UNKNOWN","rcs_meters":null,"size_class":null,"mass_kg":null,"dimensions":null,"purposes":["comms"],"wikipedia_slug":null,"has_3d_model":false,"image_url":null,"decayed_at":null,"tle_current":{"epoch":"2026-05-25T03:50:47.529312Z","epoch_age_seconds":71754,"freshness":"FRESH","line1":"1 53224U 22084AM  26145.16027233  .00000069  00000+0  88577-5 0  9998","line2":"2 53224  97.4468 205.0618 0001181 126.6469 233.4867 15.05649908210815","mean_motion":15.05649908,"eccentricity":0.0001181,"inclination_deg":97.4468,"raan_deg":205.0618,"arg_perigee_deg":126.6469,"mean_anomaly_deg":233.4867,"bstar":8.8577e-6,"rev_number":21081,"period_min":95.639762759511,"perigee_km":548.69328095968,"apogee_km":550.32959152032,"semimajor_km":6927.64843624,"source":"CELESTRAK","updated_at":"2026-05-25T13:38:17.356716Z"}}}